Location: Newark
(39.5667°N, 8.9833°E)
Time: 13:16:07
(UTC+00:00)

Altair - Visible Passes

Search period start: 19 October 2019 00:00
Search period end: 29 October 2019 00:00
Orbit: 1501 x 1683 km, 47.2° (Epoch: 18 October)

Date Brightness Start Highest point End Pass type
(mag) Time Alt. Az. Time Alt. Az. Time Alt. Az.
19 Oct 8.1 17:04:43 10° WNW 17:14:38 64° SW 17:24:36 10° SE visible
19 Oct 9.6 19:11:42 10° W 19:18:04 19° SW 19:24:28 10° SSW visible
20 Oct 9.5 18:46:05 10° W 18:53:01 21° SW 18:59:58 10° S visible
21 Oct 9.5 18:20:33 10° WNW 18:27:56 24° SW 18:35:23 10° S visible
22 Oct 9.5 17:55:05 10° WNW 18:02:52 26° SW 18:10:43 10° S visible
23 Oct 9.4 17:29:40 10° WNW 17:37:48 29° SW 17:45:59 10° S visible
24 Oct 9.4 17:04:17 10° WNW 17:12:42 32° SW 17:21:12 10° S visible
28 Oct 10.4 05:08:18 10° ESE 05:08:43 10° ESE 05:09:09 10° ESE visible
